軌道要素
Epoch 2023 Feb. 25.0 TT = JDT 2460000.5
T 2022 Oct. 30.09071 TT Rudenko
q 2.6341546 (2000.0) P Q
n 0.13019678 Peri. 104.78499 -0.28111132 -0.95965299
a 3.8553981 Node 1.58656 +0.76468564 -0.22809675
e 0.3167620 Incl. 13.62901 +0.57985542 -0.16443239
P 7.57
>From 61 observations 2013 Nov. 22-2023 Mar. 21, mean residual 0".5.
|